Regional Weather Roundup
Issued by NWS

Home | Current Version | Previous Version | Graphics & Text | Print | Product List | Glossary On
Versions: 1 2 3 4 5 6 7 8 9 10 11 12 13 14 15 16 17 18 19 20 21 22 23 24 25 26 27 28 29 30 31 32 33 34 35 36 37 38 39 40 41 42 43 44 45 46 47 48 49 50
000
ASUS43 KOAX 050510
RWRNE

WEATHER ROUNDUP FOR NEBRASKA
NATIONAL WEATHER SERVICE OMAHA NE
1200 AM CDT SAT SEP 05 2015

NOTES: SATELLITE DATA IS BEING USED TO AUGMENT CLOUD COVER ABOVE
       12000 FEET.
       "FAIR" INDICATES FEW OR NO CLOUDS BELOW 12,000 FEET WITH NO
       SIGNIFICANT WEATHER AND/OR OBSTRUCTIONS TO VISIBILITY.

  * THESE STATIONS DO NOT REPORT WEATHER SUCH AS RAIN...SNOW OR FOG.

NEZ001>004-019>022-054>056-050600-
NEBRASKA PANHANDLE

CITY           SKY/WX    TMP DP  RH WIND       PRES   REMARKS
SCOTTSBLUFF    CLOUDY    71  55  56 MISG      29.88R
ALLIANCE       CLOUDY    75  53  46 SE8       29.87F
CHADRON        CLOUDY    80  47  31 SW10G20   29.83R
KIMBALL        CLOUDY    71  46  41 SE8       29.92S
SIDNEY         MOCLDY    73  49  42 SE10      29.91S
$$

NEZ057>060-069>072-079>082-050600-
SOUTHWEST NEBRASKA

CITY           SKY/WX    TMP DP  RH WIND       PRES   REMARKS
NORTH PLATTE   MOCLDY    69  63  81 E8        29.85S
IMPERIAL       MOCLDY    77  55  46 SE12      29.85F
LEXINGTON      MOCLDY    80  61  53 S14       29.86S
MCCOOK         MOCLDY    84  57  39 S18G25    29.85R
OGALLALA       MOCLDY    74  58  57 E8        29.86S
$$

NEZ005>010-023>029-035>040-094-050600-
NORTH CENTRAL NEBRASKA

CITY           SKY/WX    TMP DP  RH WIND       PRES   REMARKS
VALENTINE      MOCLDY    75  62  64 S5        29.82S
BROKEN BOW     MOCLDY    75  64  68 SE6       29.86R
O`NEILL        PTCLDY    76  69  79 SE8       29.84S
ORD            PTCLDY    77  66  68 S6        29.84R
THEDFORD       MOCLDY    69  62  80 CALM      29.86S
$$

NEZ041-046>049-061>064-073>077-083>087-050600-
SOUTH CENTRAL NEBRASKA

CITY           SKY/WX    TMP DP  RH WIND       PRES   REMARKS
GRAND ISLAND   CLEAR     77  66  68 S14       29.88R
AURORA         CLEAR     78  65  65 S13       29.89R
HASTINGS       CLEAR     78  64  61 S8        29.89R
HEBRON         CLEAR     80  64  59 S12       29.90S
HOLDREGE       MOCLDY    79  61  53 S10       29.87S
KEARNEY *      PTCLDY    75  63  64 S12       29.87S
YORK           CLEAR     77  66  69 S13G18    29.89S
$$

NEZ011>018-030>034-042>045-050600-
NORTHEAST NEBRASKA

CITY           SKY/WX    TMP DP  RH WIND       PRES   REMARKS
NORFOLK        PTCLDY    78  66  66 SE13      29.86S
ALBION         PTCLDY    76  65  66 S8        29.86F
BLAIR          CLEAR     78  66  65 S15       29.92R
COLUMBUS *     PTCLDY    77  63  61 S8        29.88R
FREMONT        CLEAR     79  66  64 SE15G21   29.89S
TEKAMAH        CLEAR     75  70  84 SE7       29.90R
WAYNE          CLEAR     75  69  82 SE9       29.88S
$$

NEZ050>053-065>068-078-088>093-050600-
SOUTHEAST NEBRASKA

CITY           SKY/WX    TMP DP  RH WIND       PRES   REMARKS
LINCOLN        CLEAR     79  67  66 S13       29.90R
OMAHA EPPLEY   MOCLDY    80  68  66 S15       29.92R
BEATRICE       CLEAR     78  68  72 S10G20    29.92R
FALLS CITY     CLEAR     76  69  79 S8        29.94S
NEBRASKA CITY  CLEAR     76  63  65 S12       29.94S
PLATTSMOUTH    CLEAR     76  65  67 SE12      29.93S
$$

NEZ044-045-051>053-067-050600-
OMAHA AREA

CITY           SKY/WX    TMP DP  RH WIND       PRES   REMARKS
OMAHA EPPLEY   MOCLDY    80  68  66 S15       29.92R
BLAIR          CLEAR     78  66  65 S15       29.92R
FREMONT        CLEAR     79  66  64 SE15G21   29.89S
MILLARD        CLEAR     78  68  71 SE9       29.91S
OFFUTT AFB     FAIR      77  68  73 SE13      29.91S
PLATTSMOUTH    CLEAR     76  65  67 SE12      29.93S
WAHOO          FAIR      73  68  83 SE8       29.90S
$$




USA.gov is the U.S. government's official web portal to all federal, state and local government web resources and services.